Regional Weather Roundup
Issued by NWS

Home | Current Version | Previous Version | Text Only | Print | Product List | Glossary Off
Versions: 1 2 3 4 5 6 7 8 9 10 11 12 13 14 15 16 17 18 19 20 21 22 23 24 25 26 27 28 29 30 31 32 33 34 35 36 37 38 39 40 41 42 43 44 45 46 47 48 49 50

000
ASUS43 KOAX 211910
RWRNE

WEATHER ROUNDUP FOR NEBRASKA
NATIONAL WEATHER SERVICE OMAHA NE
200 PM CDT SUN SEP 21 2014

NOTES: SATELLITE DATA IS BEING USED TO AUGMENT CLOUD COVER ABOVE
       12000 FEET.
       "FAIR" INDICATES FEW OR NO CLOUDS BELOW 12,000 FEET WITH NO
       SIGNIFICANT WEATHER AND/OR OBSTRUCTIONS TO VISIBILITY.

  * THESE STATIONS DO NOT REPORT WEATHER SUCH AS RAIN...SNOW OR FOG.

NEZ001>004-019>022-054>056-212000-
NEBRASKA PANHANDLE

CITY           SKY/WX    TMP DP  RH WIND       PRES   REMARKS
SCOTTSBLUFF    SUNNY     71  39  31 SE13G18   30.35F
ALLIANCE       PTSUNNY   71  36  27 VRB3      30.35F
CHADRON        SUNNY     74  38  27 VRB5      30.32F
KIMBALL        MOSUNNY   70  38  31 SE17      30.36F
SIDNEY         SUNNY     73  37  27 SE10      30.37F
$$

NEZ057>060-069>072-079>082-212000-
SOUTHWEST NEBRASKA

CITY           SKY/WX    TMP DP  RH WIND       PRES   REMARKS
NORTH PLATTE   SUNNY     73  39  29 VRB3G16   30.32F
IMPERIAL       CLOUDY    72  35  25 SE7       30.34F
LEXINGTON      SUNNY     73  40  31 N9        30.31F
MCCOOK         SUNNY     76  37  24 N8        30.32F
OGALLALA       MOSUNNY   74  39  28 CALM      30.34F
$$

NEZ005>010-023>029-035>040-094-212000-
NORTH CENTRAL NEBRASKA

CITY           SKY/WX    TMP DP  RH WIND       PRES   REMARKS
VALENTINE      SUNNY     72  36  26 NW13      30.32F
AINSWORTH      SUNNY     69  37  30 NW10      30.32F
BROKEN BOW     SUNNY     75  38  26 N8        30.30F
O`NEILL        SUNNY     70  46  41 N13G21    30.30F
ORD            SUNNY     72  43  35 NW6G16    30.28F
THEDFORD       SUNNY     73  41  31 NW7       30.34F
$$

NEZ041-046>049-061>064-073>077-083>087-212000-
SOUTH CENTRAL NEBRASKA

CITY           SKY/WX    TMP DP  RH WIND       PRES   REMARKS
GRAND ISLAND   SUNNY     74  42  31 N16       30.28F
AURORA         SUNNY     72  39  30 N14G20    30.27F
HASTINGS       SUNNY     73  40  30 N14       30.28F
HEBRON         SUNNY     75  37  25 N7G22     30.25F
HOLDREGE       SUNNY     72  40  31 N7G17     30.30F
KEARNEY *      SUNNY     73  39  29 NW13G20   30.30F
YORK           SUNNY     70  46  43 N13G18    30.26F
$$

NEZ011>018-030>034-042>045-212000-
NORTHEAST NEBRASKA

CITY           SKY/WX    TMP DP  RH WIND       PRES   REMARKS
NORFOLK        SUNNY     71  45  39 NW18      30.25F
ALBION         SUNNY     71  40  32 NW10G23   30.27F
BLAIR          SUNNY     71  47  43 NW14G25   30.21F
COLUMBUS *     SUNNY     72  45  37 NW15G22   30.26F
FREMONT        MOSUNNY   71  46  40 NW16G24   30.23F
TEKAMAH        MOSUNNY   73  47  39 N16G26    30.22F
WAYNE          PTSUNNY   71  48  44 N16G24    30.25F
$$

NEZ050>053-065>068-078-088>093-212000-
SOUTHEAST NEBRASKA

CITY           SKY/WX    TMP DP  RH WIND       PRES   REMARKS
LINCOLN        SUNNY     73  46  38 N17G28    30.24F
OMAHA EPPLEY   MOSUNNY   71  46  40 N21G29    30.21F
BEATRICE       SUNNY     74  44  34 N17       30.23F
FALLS CITY     SUNNY     74  46  36 N16G26    30.19F
NEBRASKA CITY    N/A     71  34  25 N17G24    30.21F
PLATTSMOUTH    MOSUNNY   70  44  39 NW14G22   30.21F
$$

NEZ044-045-051>053-067-212000-
OMAHA AREA

CITY           SKY/WX    TMP DP  RH WIND       PRES   REMARKS
OMAHA EPPLEY   MOSUNNY   71  46  40 N21G29    30.21F
BLAIR          SUNNY     71  47  43 NW14G25   30.21F
FREMONT        MOSUNNY   71  46  40 NW16G24   30.23F
MILLARD        MOSUNNY   71  48  43 NW12G21   30.22F
OFFUTT AFB     MOSUNNY   72  49  45 NW15G23   30.21F
PLATTSMOUTH    MOSUNNY   70  44  39 NW14G22   30.21F
WAHOO          FAIR      72  43  35 N15G23    30.23F
$$


USA.gov is the U.S. government's official web portal to all federal, state and local government web resources and services.